This demonstration page uses our WeatherBlox Daily Observations layout. Learn more.

Left ArrowRight Arrow

Hourly Observations for February 17, 2022

Temp ( °F °C ) Dew Point ( °F °C ) Humidity (%) Winds ( mph kmh ) Pressure ( in mb ) Visibility ( mi km ) Precip ( " mm )
12:53 am 00:53 Clear 23 -5 15 -9.4 72 72 SW 17 28 30.20 1023 10 16 0.00 0.00
1:53 am 01:53 Partly Cloudy 19 -7.2 13 -10.6 77 77 WSW 13 20 30.20 1023 10 16 0.00 0.00
2:53 am 02:53 Clear 18 -7.8 13 -10.6 81 81 W 12 19 30.17 1022 10 16 0.00 0.00
3:53 am 03:53 Clear 15 -9.4 11 -11.7 84 84 WSW 9 15 30.12 1020 10 16 0.00 0.00
4:53 am 04:53 Clear 13 -10.6 10 -12.2 88 88 W 8 13 30.10 1019 10 16 0.00 0.00
5:53 am 05:53 Clear 24 -4.4 16 -8.9 71 71 SW 15 24 30.03 1017 10 16 0.00 0.00
6:53 am 06:53 Partly Cloudy 25 -3.9 17 -8.3 72 72 SW 16 26 30.00 1016 10 16 0.00 0.00
7:53 am 07:53 Cloudy 27 -2.8 18 -7.8 69 69 SW 23 37 29.95 1014 10 16 0.00 0.00
8:53 am 08:53 Cloudy 30 -1.1 21 -6.1 69 69 SW 24 39 29.91 1013 10 16 0.00 0.00
9:53 am 09:53 Cloudy 33 0.6 23 -5 66 66 SW 29 46 29.88 1012 10 16 0.00 0.00
10:53 am 10:53 Cloudy 36 2.2 24 -4.4 62 62 SW 25 41 29.87 1011 10 16 0.00 0.00
11:53 am 11:53 Cloudy 37 2.8 26 -3.3 65 65 WSW 18 30 29.87 1011 10 16 0.00 0.00
12:53 pm 12:53 Cloudy 39 3.9 28 -2.2 65 65 SW 18 30 29.84 1010 10 16 0.00 0.00
1:53 pm 13:53 Cloudy 40 4.4 29 -1.7 65 65 WSW 16 26 29.84 1011 10 16 0.00 0.00
2:53 pm 14:53 Cloudy 41 5 31 -0.6 67 67 SW 13 20 29.85 1011 10 16 0.00 0.00
3:13 pm 15:13 Cloudy 44 6.7 32 0 63 63 NW 28 44 29.81 1010 10 16 0.00 0.00
3:53 pm 15:53 Mostly Cloudy 43 6.1 32 0 65 65 WNW 12 19 29.86 1011 10 16 0.00 0.00
4:53 pm 16:53 Mostly Cloudy 41 5 32 0 70 70 SW 9 15 29.89 1012 10 16 0.00 0.00
5:53 pm 17:53 Mostly Cloudy 38 3.3 31 -0.6 76 76 SW 10 17 29.89 1012 10 16 0.00 0.00
6:53 pm 18:53 Cloudy 39 3.9 30 -1.1 70 70 SW 14 22 29.92 1013 10 16 0.00 0.00
7:53 pm 19:53 Cloudy 38 3.3 30 -1.1 73 73 W 13 20 29.93 1014 10 16 0.00 0.00
8:53 pm 20:53 Cloudy 39 3.9 28 -2.2 65 65 W 18 30 29.93 1013 10 16 0.00 0.00
9:53 pm 21:53 Cloudy 38 3.3 28 -2.2 68 68 W 20 31 29.93 1014 10 16 0.00 0.00
10:53 pm 22:53 Cloudy 36 2.2 28 -2.2 73 73 SW 15 24 29.93 1014 10 16 0.00 0.00
11:53 pm 23:53 Cloudy 36 2.2 28 -2.2 73 73 SW 18 30 29.92 1013 10 16 0.00 0.00

Powered by AerisWeather